FW5428 Weather Reports


Display with metric or nautical units.
time (UTC)temp
F
wind
direction
speed
MPH
gust
MPH
rain 1hr
in
rain 24hr
in
rain mn
in
humidity
%
barometer
mb
20260831102747 56 90 8.0 12.0 0.00 0.00 0.00 91 1011.5
20260831102237 56 135 5.0 17.0 0.00 0.00 0.00 91 1011.5
20260831101727 56 45 8.0 17.0 0.00 0.00 0.00 91 1011.7
20260831101217 56 90 4.0 10.0 0.00 0.00 0.00 91 1011.5
20260831100706 56 45 3.0 11.0 0.00 0.00 0.00 91 1011.6
20260831100156 56 90 7.0 15.0 0.00 0.00 0.00 91 1011.6
20260831095135 56 45 4.0 11.0 0.00 0.00 0.00 92 1011.4
20260831094629 57 180 3.0 11.0 0.00 0.00 0.00 92 1011.6
20260831094115 57 90 2.0 8.0 0.00 0.00 0.00 92 1011.6
20260831093606 56 135 3.0 13.0 0.00 0.00 0.00 91 1011.9
20260831093056 56 90 2.0 13.0 0.00 0.00 0.00 92 1011.7
20260831092546 56 90 2.0 11.0 0.00 0.00 0.00 92 1011.8
20260831092035 56 90 2.0 11.0 0.00 0.00 0.00 92 1011.7
20260831091015 56 135 2.0 6.0 0.00 0.00 0.00 92 1011.7
20260831090508 56 90 3.0 6.0 0.00 0.00 0.00 92 1011.8
20260831085955 56 90 2.0 6.0 0.00 0.00 0.00 92 1011.8
20260831085445 56 180 0.0 4.0 0.00 0.00 0.00 92 1012.0
20260831084935 56 90 2.0 4.0 0.00 0.00 0.00 92 1012.1
20260831083915 56 90 2.0 4.0 0.00 0.00 0.00 92 1011.9
20260831082854 56 90 2.0 8.0 0.00 0.00 0.00 92 1012.1
20260831082344 56 90 4.0 7.0 0.00 0.00 0.00 92 1012.1
20260831081833 56 90 2.0 6.0 0.00 0.00 0.00 92 1011.8
20260831081324 55 90 3.0 8.0 0.00 0.00 0.00 92 1012.0
20260831080814 55 90 3.0 8.0 0.00 0.00 0.00 92 1011.9
20260831080303 55 90 2.0 8.0 0.00 0.00 0.00 92 1012.3
20260831075753 55 90 3.0 12.0 0.00 0.00 0.00 92 1012.2
20260831075243 55 45 4.0 12.0 0.00 0.00 0.00 92 1012.1
20260831074734 55 90 2.0 9.0 0.00 0.00 0.00 92 1012.4
20260831074223 55 90 4.0 9.0 0.00 0.00 0.00 92 1012.2
20260831073713 56 90 2.0 10.0 0.00 0.00 0.00 92 1012.4
20260831072654 56 90 3.0 8.0 0.00 0.00 0.00 92 1012.5
20260831072142 56 45 3.0 8.0 0.00 0.00 0.00 92 1012.8
20260831071633 56 90 2.0 9.0 0.00 0.00 0.00 92 1012.7
20260831070613 55 90 4.0 13.0 0.00 0.00 0.00 92 1012.8
20260831065552 56 180 3.0 13.0 0.00 0.00 0.00 92 1012.8
20260831065042 56 135 4.0 13.0 0.00 0.00 0.00 92 1012.8
20260831064532 56 135 2.0 14.0 0.00 0.00 0.00 92 1012.9
20260831064022 55 90 3.0 15.0 0.00 0.00 0.00 92 1013.2
20260831063512 55 135 8.0 15.0 0.00 0.00 0.00 92 1013.3
20260831063001 55 90 8.0 14.0 0.00 0.00 0.00 92 1013.3
20260831062451 55 135 5.0 13.0 0.00 0.00 0.00 92 1013.2
20260831061942 55 90 8.0 13.0 0.00 0.00 0.00 92 1013.5
20260831061431 55 90 2.0 16.0 0.00 0.00 0.00 92 1013.3
20260831060921 55 90 7.0 16.0 0.00 0.00 0.00 92 1013.4
20260831060411 55 135 6.0 0.0 0.00 0.00 0.00 92 1013.6
20260831055449 55 180 2.0 13.0 0.00 0.28 0.00 92 1013.5
20260831054939 55 135 8.0 13.0 0.00 0.28 0.00 92 1013.6
20260831054429 55 90 7.0 10.0 0.00 0.28 0.00 92 1013.4
20260831053919 55 135 4.0 10.0 0.00 0.28 0.00 92 1013.3
20260831053410 55 135 4.0 10.0 0.00 0.28 0.00 92 1013.5
20260831052900 55 135 7.0 9.0 0.00 0.28 0.00 92 1013.5
20260831052349 55 135 4.0 8.0 0.00 0.28 0.00 92 1013.3
20260831051839 55 90 3.0 6.0 0.00 0.28 0.00 92 1013.5
20260831051328 55 90 2.0 6.0 0.00 0.28 0.00 92 1013.4
20260831050308 56 180 1.0 8.0 0.00 0.28 0.00 91 1013.7
20260831045758 56 135 5.0 8.0 0.00 0.28 0.00 91 1013.5
20260831045248 56 135 5.0 9.0 0.00 0.28 0.00 91 1013.4
20260831044228 56 90 5.0 12.0 0.00 0.28 0.00 91 1013.3
20260831043208 56 90 8.0 13.0 0.00 0.28 0.00 91 1013.6
20260831042658 56 90 11.0 13.0 0.00 0.28 0.00 91 1013.6
20260831042148 56 135 8.0 13.0 0.00 0.28 0.00 91 1013.6
20260831041638 56 135 8.0 12.0 0.00 0.28 0.00 91 1013.6
20260831040618 57 135 4.0 11.0 0.00 0.28 0.00 91 1013.8
20260831040118 57 135 6.0 13.0 0.00 0.28 0.00 91 1013.8
20260831035557 57 135 7.0 15.0 0.00 0.28 0.00 90 1013.8
20260831034536 58 180 12.0 15.0 0.00 0.28 0.00 90 1013.8
20260831034027 58 180 6.0 11.0 0.00 0.28 0.00 90 1013.9
20260831033526 58 90 5.0 11.0 0.00 0.28 0.00 90 1013.9
20260831033006 58 90 6.0 11.0 0.00 0.28 0.00 90 1013.9
20260831032457 58 135 4.0 10.0 0.00 0.28 0.00 89 1013.6
20260831031946 58 90 6.0 10.0 0.00 0.28 0.00 88 1013.8
20260831031436 58 90 5.0 11.0 0.00 0.28 0.00 88 1013.7
20260831030927 58 90 3.0 11.0 0.00 0.28 0.00 88 1013.5
20260831025906 58 135 8.0 17.0 0.00 0.28 0.28 87 1013.2
20260831025356 58 135 5.0 12.0 0.00 0.28 0.28 87 1013.1
20260831024846 58 90 3.0 15.0 0.00 0.28 0.28 87 1012.8
20260831024335 58 90 6.0 15.0 0.00 0.28 0.28 87 1013.0
20260831023825 58 90 4.0 14.0 0.00 0.28 0.28 87 1012.8
20260831022255 59 135 4.0 16.0 0.00 0.28 0.28 87 1012.7
20260831021745 58 90 8.0 16.0 0.00 0.28 0.28 87 1012.8
20260831020725 59 90 6.0 18.0 0.00 0.28 0.28 87 1012.5
20260831020215 59 90 5.0 18.0 0.00 0.28 0.28 87 1012.5
20260831015705 59 90 5.0 13.0 0.00 0.28 0.28 87 1012.5
20260831015154 59 90 5.0 11.0 0.00 0.28 0.28 87 1012.6
20260831014644 59 135 5.0 16.0 0.00 0.28 0.28 87 1012.7
20260831014134 59 45 7.0 16.0 0.00 0.28 0.28 86 1012.8
20260831013625 59 45 3.0 15.0 0.00 0.28 0.28 86 1012.7
20260831013114 59 90 7.0 15.0 0.00 0.28 0.28 87 1012.9
20260831012604 59 90 6.0 15.0 0.00 0.28 0.28 86 1012.6
20260831012054 59 135 4.0 14.0 0.00 0.28 0.28 87 1012.8
20260831011544 59 90 8.0 13.0 0.00 0.28 0.28 87 1012.7
20260831011033 60 90 7.0 15.0 0.00 0.28 0.28 87 1012.7
20260831010523 60 90 6.0 16.0 0.00 0.28 0.28 87 1012.5
20260831010014 60 90 6.0 16.0 0.00 0.28 0.28 86 1012.8
20260831005503 60 135 6.0 17.0 0.00 0.28 0.28 86 1012.6
20260831004954 60 45 8.0 17.0 0.00 0.28 0.28 86 1012.6
20260831003933 60 45 4.0 19.0 0.00 0.28 0.28 86 1012.8
20260831003423 60 90 8.0 19.0 0.00 0.28 0.28 86 1012.7
20260831002913 60 90 6.0 17.0 0.00 0.28 0.28 86 1012.7
20260831002402 60 90 7.0 17.0 0.00 0.28 0.28 86 1012.9
20260831001853 60 90 8.0 16.0 0.00 0.28 0.28 86 1012.7
20260831001342 60 90 6.0 14.0 0.00 0.28 0.28 86 1012.8
20260831000322 61 90 7.0 15.0 0.00 0.28 0.28 85 1012.9
20260830235812 61 90 5.0 15.0 0.00 0.28 0.28 84 1012.9
20260830235305 61 90 6.0 15.0 0.00 0.28 0.28 84 1013.0
20260830234751 61 270 4.0 15.0 0.00 0.28 0.28 83 1013.0
20260830234242 61 45 4.0 15.0 0.00 0.28 0.28 83 1012.8
20260830233732 61 90 4.0 16.0 0.00 0.28 0.28 83 1012.8
20260830233222 61 90 7.0 16.0 0.00 0.28 0.28 82 1012.8
20260830232712 61 90 3.0 15.0 0.00 0.28 0.28 82 1013.1
20260830232201 62 135 6.0 15.0 0.00 0.28 0.28 82 1013.0
20260830231650 62 45 4.0 17.0 0.00 0.28 0.28 81 1012.8
20260830231141 62 135 8.0 17.0 0.00 0.28 0.28 81 1012.8
20260830230632 62 90 7.0 19.0 0.00 0.28 0.28 80 1012.9
20260830230120 62 90 4.0 19.0 0.00 0.28 0.28 79 1012.8
20260830225100 62 45 5.0 17.0 0.00 0.28 0.28 77 1012.6
20260830224550 62 90 9.0 17.0 0.00 0.28 0.28 77 1012.6
20260830224040 63 0 4.0 15.0 0.00 0.28 0.28 76 1012.5
20260830223530 63 90 3.0 15.0 0.00 0.28 0.28 75 1012.7
20260830222510 63 90 7.0 17.0 0.00 0.28 0.28 73 1012.8
20260830222000 63 135 6.0 14.0 0.00 0.28 0.28 72 1012.3
20260830221449 63 90 6.0 14.0 0.00 0.28 0.28 72 1012.6
20260830220939 64 45 4.0 14.0 0.00 0.28 0.28 71 1012.4
20260830215919 64 45 6.0 15.0 0.00 0.28 0.28 69 1012.6
20260830215410 64 90 6.0 12.0 0.00 0.28 0.28 68 1012.6
20260830214900 65 90 3.0 12.0 0.00 0.28 0.28 69 1012.6
20260830214401 65 90 4.0 12.0 0.00 0.28 0.28 68 1012.7
20260830213839 65 45 4.0 13.0 0.00 0.28 0.28 68 1012.5
20260830213328 66 90 3.0 13.0 0.00 0.28 0.28 67 1012.4
20260830212818 66 90 4.0 11.0 0.00 0.28 0.28 66 1012.5
20260830212309 67 90 3.0 12.0 0.00 0.28 0.28 65 1012.4
20260830210228 68 90 8.0 19.0 0.00 0.28 0.28 60 1012.5
20260830204148 69 90 9.0 18.0 0.00 0.28 0.28 55 1012.5
20260830203637 69 90 6.0 23.0 0.00 0.28 0.28 55 1012.5
20260830203127 70 90 9.0 23.0 0.00 0.28 0.28 53 1012.4
20260830202618 70 90 6.0 17.0 0.00 0.28 0.28 53 1012.6
20260830202107 70 90 8.0 20.0 0.28 0.28 0.28 52 1012.5
20260830201557 70 90 9.0 20.0 0.28 0.28 0.28 56 1012.3
20260830201057 70 90 8.0 20.0 0.28 0.28 0.28 55 1012.4
20260830200537 70 135 5.0 20.0 0.28 0.28 0.28 54 1012.5
20260830200027 71 45 5.0 15.0 0.28 0.28 0.28 55 1012.4
20260830195517 71 90 8.0 15.0 0.28 0.28 0.28 53 1012.5
20260830195006 71 90 8.0 17.0 0.28 0.28 0.28 53 1012.6
20260830193946 71 90 7.0 21.0 0.28 0.28 0.28 53 1012.3
20260830193436 71 90 11.0 21.0 0.28 0.28 0.28 51 1012.4
20260830192926 71 135 7.0 21.0 0.28 0.28 0.28 48 1012.6
20260830192416 71 90 8.0 17.0 0.28 0.28 0.28 46 1012.8
20260830191906 71 90 6.0 17.0 0.00 0.00 0.00 50 1012.7
20260830191356 70 90 3.0 21.0 0.00 0.00 0.00 53 1012.5
20260830190846 70 90 7.0 22.0 0.00 0.00 0.00 55 1012.3
20260830190336 70 90 13.0 22.0 0.00 0.00 0.00 63 1012.3
20260830185825 70 90 6.0 18.0 0.00 0.00 0.00 55 1012.4
20260830185322 70 90 6.0 23.0 0.00 0.00 0.00 55 1012.3
20260830184805 70 135 10.0 23.0 0.00 0.00 0.00 59 1012.4
20260830184254 70 90 11.0 26.0 0.00 0.00 0.00 53 1012.4
20260830183745 70 135 16.0 26.0 0.00 0.00 0.00 53 1012.2
20260830183235 69 135 14.0 23.0 0.00 0.00 0.00 53 1012.4
20260830182725 69 90 17.0 23.0 0.00 0.00 0.00 55 1012.4
20260830181154 67 90 14.0 22.0 0.00 0.00 0.00 64 1012.5
20260830180134 67 90 16.0 23.0 0.00 0.00 0.00 62 1012.7
20260830175624 67 135 13.0 21.0 0.00 0.00 0.00 67 1012.7
20260830175113 67 135 16.0 22.0 0.00 0.00 0.00 65 1012.8
20260830174604 67 90 13.0 22.0 0.00 0.00 0.00 68 1012.8
20260830174054 68 135 15.0 25.0 0.00 0.00 0.00 67 1013.0
20260830172524 68 135 13.0 22.0 0.00 0.00 0.00 63 1013.0
20260830172013 68 90 15.0 21.0 0.00 0.00 0.00 67 1013.3
20260830171503 68 90 9.0 21.0 0.00 0.00 0.00 61 1013.2
20260830170953 68 135 14.0 21.0 0.00 0.00 0.00 66 1013.3
20260830170443 68 270 11.0 20.0 0.00 0.00 0.00 64 1013.5
20260830165932 68 135 11.0 20.0 0.00 0.00 0.00 63 1013.5
20260830165422 67 135 9.0 21.0 0.00 0.00 0.00 60 1013.8
20260830164913 66 90 14.0 22.0 0.00 0.00 0.00 65 1013.8
20260830163852 65 135 16.0 19.0 0.00 0.00 0.00 68 1013.7
20260830163342 65 135 11.0 21.0 0.00 0.00 0.00 72 1013.7
20260830162832 65 90 16.0 21.0 0.00 0.00 0.00 72 1014.0
20260830162322 65 135 15.0 21.0 0.00 0.00 0.00 73 1014.1
20260830161812 64 135 15.0 21.0 0.00 0.00 0.00 72 1014.1
20260830161302 64 135 15.0 20.0 0.00 0.00 0.00 73 1014.3
20260830160751 64 135 14.0 18.0 0.00 0.00 0.00 76 1014.4
20260830160244 64 135 10.0 19.0 0.00 0.00 0.00 73 1014.7
20260830155732 64 180 12.0 21.0 0.00 0.00 0.00 74 1014.6
20260830155222 64 90 13.0 21.0 0.00 0.00 0.00 74 1014.7
20260830154712 65 135 13.0 19.0 0.00 0.00 0.00 76 1014.8
20260830154201 66 135 15.0 19.0 0.00 0.00 0.00 75 1014.4
20260830153651 65 90 11.0 20.0 0.00 0.00 0.00 65 1014.4
20260830153141 64 135 8.0 20.0 0.00 0.00 0.00 66 1014.5
20260830152630 63 135 11.0 21.0 0.00 0.00 0.00 74 1014.5
20260830151610 62 135 15.0 20.0 0.00 0.00 0.00 79 1014.8
20260830151100 62 135 15.0 20.0 0.00 0.00 0.00 80 1014.9
20260830150551 62 135 12.0 21.0 0.00 0.00 0.00 83 1014.7
20260830145530 61 135 16.0 19.0 0.00 0.00 0.00 82 1014.9
20260830145019 61 135 11.0 21.0 0.00 0.00 0.00 84 1014.9
20260830144511 60 90 13.0 21.0 0.00 0.00 0.00 84 1014.9
20260830143449 60 90 15.0 17.0 0.00 0.00 0.00 86 1015.3
20260830142939 60 135 9.0 16.0 0.00 0.00 0.00 86 1015.4
20260830140859 60 90 13.0 18.0 0.00 0.00 0.00 85 1015.5
20260830140348 60 135 11.0 17.0 0.00 0.00 0.00 85 1015.5
20260830134819 62 135 8.0 17.0 0.00 0.00 0.00 83 1015.6
20260830134309 62 135 3.0 11.0 0.00 0.00 0.00 80 1015.6
20260830133758 62 90 4.0 14.0 0.00 0.00 0.00 81 1015.7
20260830133248 61 90 8.0 14.0 0.00 0.00 0.00 81 1015.7
20260830132738 61 135 4.0 12.0 0.00 0.00 0.00 81 1015.7
20260830132228 60 90 5.0 13.0 0.00 0.00 0.00 82 1015.8
20260830131718 60 90 7.0 13.0 0.00 0.00 0.00 83 1016.0
20260830131207 60 135 4.0 11.0 0.00 0.00 0.00 84 1015.9
20260830130148 59 135 4.0 15.0 0.00 0.00 0.00 84 1015.7
20260830124617 57 90 6.0 11.0 0.00 0.00 0.00 86 1015.9
20260830124107 56 90 4.0 11.0 0.00 0.00 0.00 87 1015.9
20260830123557 55 270 3.0 14.0 0.00 0.00 0.00 89 1015.9
20260830123048 54 135 7.0 14.0 0.00 0.00 0.00 90 1016.0
20260830122026 54 90 8.0 13.0 0.00 0.00 0.00 90 1016.0
20260830121517 54 135 8.0 12.0 0.00 0.00 0.00 90 1016.1
20260830121006 53 90 7.0 10.0 0.00 0.00 0.00 90 1016.2
20260830115946 52 45 4.0 10.0 0.00 0.00 0.00 91 1016.1
20260830115436 51 90 5.0 10.0 0.00 0.00 0.00 91 1016.2
20260830114925 51 90 4.0 10.0 0.00 0.00 0.00 92 1016.1
20260830113906 50 90 3.0 8.0 0.00 0.00 0.00 92 1015.9
20260830113355 49 135 2.0 7.0 0.00 0.00 0.00 92 1016.0
20260830112846 49 90 2.0 5.0 0.00 0.00 0.00 93 1015.9
20260830112335 48 90 3.0 6.0 0.00 0.00 0.00 93 1015.9
20260830111825 48 90 0.0 6.0 0.00 0.00 0.00 93 1015.9
20260830110805 48 90 3.0 5.0 0.00 0.00 0.00 93 1015.8
20260830110254 47 90 2.0 5.0 0.00 0.00 0.00 93 1015.9
20260830105745 47 0 2.0 5.0 0.00 0.00 0.00 93 1015.5
20260830105235 47 90 2.0 7.0 0.00 0.00 0.00 93 1015.5
20260830104724 47 90 3.0 7.0 0.00 0.00 0.00 93 1015.8
20260830103704 47 90 0.0 8.0 0.00 0.00 0.00 93 1015.9